When you browse on this site, cookies collect data to enhance your experience and personalize the content and advertising you see.
Visit our Privacy Policy to learn more. By continuing to use the site, you agree to this use of cookies and data.
  • In Belgium
  • List of Countries
  • For 7 days
  • Water Temperature
  • Satellite Maps
  • Weather Map
  • Weather Widgets
  • user-avatar
    Login

    Hourly Weather Dendermonde

    Today, 20 January, Sunday

    Time Temperature Precipitation Wind Pressure Humidity
    00:00 -2°C° 0 mm 3 mps 759 mmHg 69%
    01:00 -2°C° 0 mm 2 mps 759 mmHg 69%
    02:00 -2°C° 0 mm 2 mps 759 mmHg 69%
    03:00 -2°C° 0 mm 2 mps 759 mmHg 69%
    04:00 -2°C° 0 mm 2 mps 759 mmHg 68%
    05:00 -3°C° 0 mm 2 mps 760 mmHg 68%
    06:00 -3°C° 0 mm 2 mps 760 mmHg 67%
    07:00 -2°C° 0 mm 2 mps 760 mmHg 65%
    08:00 -2°C° 0 mm 2 mps 761 mmHg 63%
    09:00 -2°C° 0 mm 3 mps 761 mmHg 62%
    10:00 -1°C° 0 mm 3 mps 761 mmHg 58%
    11:00 0°C° 0 mm 3 mps 762 mmHg 54%
    12:00 +1°C° 0 mm 3 mps 762 mmHg 50%
    13:00 +1°C° 0 mm 3 mps 762 mmHg 51%
    14:00 +2°C° 0 mm 2 mps 762 mmHg 52%
    15:00 +2°C° 0 mm 2 mps 762 mmHg 53%
    16:00 +1°C° 0 mm 2 mps 763 mmHg 56%
    17:00 -1°C° 0 mm 2 mps 764 mmHg 59%
    18:00 -2°C° 0 mm 2 mps 764 mmHg 62%
    19:00 -2°C° 0 mm 2 mps 765 mmHg 62%
    20:00 -2°C° 0 mm 2 mps 765 mmHg 62%
    21:00 -2°C° 0 mm 2 mps 766 mmHg 62%
    22:00 -2°C° 0 mm 2 mps 766 mmHg 61%
    23:00 0°C° 0 mm 1 mps 766 mmHg 60%

    Tomorrow, 21 January, Monday

    Time Temperature Precipitation Wind Pressure Humidity
    00:00 0°C° 0 mm 1 mps 767 mmHg 59%
    01:00 0°C° 0 mm 1 mps 767 mmHg 58%
    02:00 0°C° 0 mm 1 mps 767 mmHg 57%
    03:00 0°C° 0 mm 1 mps 767 mmHg 56%
    04:00 -1°C° 0 mm 0 mps 767 mmHg 55%
    05:00 -2°C° 0 mm 0 mps 767 mmHg 54%
    06:00 -2°C° 0 mm 0 mps 767 mmHg 53%
    07:00 -1°C° 0 mm 0 mps 767 mmHg 51%
    08:00 -1°C° 0 mm 0 mps 768 mmHg 49%
    09:00 0°C° 0 mm 0 mps 768 mmHg 47%
    10:00 0°C° 0 mm 0 mps 767 mmHg 44%
    11:00 +2°C° 0 mm 1 mps 767 mmHg 42%
    12:00 +3°C° 0 mm 1 mps 767 mmHg 39%
    13:00 +3°C° 0 mm 1 mps 767 mmHg 41%
    14:00 +3°C° 0 mm 1 mps 766 mmHg 44%
    15:00 +3°C° 0 mm 1 mps 766 mmHg 47%
    16:00 +2°C° 0 mm 1 mps 765 mmHg 49%
    17:00 -1°C° 0 mm 2 mps 765 mmHg 51%
    18:00 -2°C° 0 mm 2 mps 765 mmHg 53%
    19:00 -2°C° 0 mm 2 mps 764 mmHg 54%
    20:00 -2°C° 0 mm 3 mps 764 mmHg 55%
    21:00 -2°C° 0 mm 3 mps 763 mmHg 57%
    22:00 -3°C° 0 mm 4 mps 762 mmHg 56%
    23:00 -3°C° 0 mm 4 mps 761 mmHg 56%

    Day after tomorrow, 22 January, Tuesday

    Time Temperature Precipitation Wind Pressure Humidity
    00:00 -4°C° 0 mm 5 mps 760 mmHg 56%
    01:00 -3°C° 0 mm 6 mps 759 mmHg 55%
    02:00 -3°C° 0 mm 6 mps 758 mmHg 54%
    03:00 -3°C° 0 mm 7 mps 756 mmHg 53%
    04:00 -3°C° 0.1 mm 7 mps 755 mmHg 57%
    05:00 -3°C° 0.1 mm 7 mps 754 mmHg 60%
    06:00 -2°C° 0.1 mm 8 mps 752 mmHg 63%
    07:00 -4°C° 0.6 mm 8 mps 752 mmHg 72%
    08:00 -4°C° 0.6 mm 8 mps 751 mmHg 80%
    09:00 -4°C° 0.6 mm 8 mps 751 mmHg 88%
    10:00 -2°C° 0.7 mm 6 mps 750 mmHg 90%
    11:00 -1°C° 0.7 mm 5 mps 750 mmHg 92%
    12:00 -1°C° 0.7 mm 4 mps 749 mmHg 94%
    13:00 0°C° 0.2 mm 3 mps 749 mmHg 94%
    14:00 +1°C° 0.2 mm 2 mps 748 mmHg 94%
    15:00 +1°C° 0.2 mm 2 mps 748 mmHg 94%
    16:00 +1°C° 0 mm 2 mps 748 mmHg 92%
    17:00 +1°C° 0 mm 2 mps 748 mmHg 91%
    18:00 -1°C° 0 mm 2 mps 748 mmHg 90%
    19:00 -1°C° 0 mm 2 mps 748 mmHg 89%
    20:00 -1°C° 0 mm 2 mps 748 mmHg 88%
    21:00 -1°C° 0 mm 2 mps 748 mmHg 88%
    22:00 -1°C° 0 mm 2 mps 748 mmHg 88%
    23:00 -2°C° 0 mm 2 mps 748 mmHg 88%

    23 January, Wednesday

    Time Temperature Precipitation Wind Pressure Humidity
    00:00 -2°C° 0 mm 2 mps 748 mmHg 88%
    01:00 -2°C° 0 mm 2 mps 748 mmHg 88%
    02:00 0°C° 0 mm 1 mps 748 mmHg 88%
    03:00 -1°C° 0 mm 1 mps 748 mmHg 88%
    04:00 -1°C° 0 mm 1 mps 749 mmHg 88%
    05:00 -1°C° 0 mm 1 mps 749 mmHg 88%
    06:00 -1°C° 0 mm 1 mps 749 mmHg 88%
    07:00 -1°C° 0 mm 1 mps 749 mmHg 87%
    08:00 0°C° 0 mm 1 mps 750 mmHg 86%
    09:00 0°C° 0 mm 1 mps 750 mmHg 86%
    10:00 +1°C° 0 mm 1 mps 751 mmHg 86%
    11:00 +2°C° 0 mm 1 mps 751 mmHg 86%
    12:00 +3°C° 0 mm 1 mps 751 mmHg 86%
    13:00 +3°C° 0 mm 1 mps 751 mmHg 86%
    14:00 +3°C° 0 mm 1 mps 751 mmHg 86%
    15:00 +3°C° 0 mm 1 mps 752 mmHg 86%
    16:00 +2°C° 0 mm 1 mps 752 mmHg 86%
    17:00 +2°C° 0 mm 1 mps 753 mmHg 87%
    18:00 +1°C° 0 mm 1 mps 753 mmHg 88%
    19:00 +1°C° 0 mm 1 mps 754 mmHg 88%
    20:00 +1°C° 0 mm 1 mps 754 mmHg 89%
    21:00 +1°C° 0 mm 1 mps 755 mmHg 89%
    22:00 +1°C° 0 mm 1 mps 755 mmHg 90%
    23:00 +1°C° 0 mm 1 mps 756 mmHg 90%

    24 January, Thursday

    Time Temperature Precipitation Wind Pressure Humidity
    00:00 +1°C° 0 mm 1 mps 756 mmHg 90%
    01:00 +1°C° 0 mm 1 mps 756 mmHg 89%
    02:00 +1°C° 0 mm 1 mps 757 mmHg 89%
    03:00 -1°C° 0 mm 2 mps 757 mmHg 89%
    04:00 +1°C° 0 mm 1 mps 757 mmHg 87%
    05:00 +1°C° 0 mm 1 mps 757 mmHg 86%
    06:00 +1°C° 0 mm 1 mps 758 mmHg 85%
    07:00 +1°C° 0 mm 1 mps 758 mmHg 84%
    08:00 +1°C° 0 mm 1 mps 759 mmHg 83%
    09:00 +1°C° 0 mm 1 mps 759 mmHg 82%
    10:00 +2°C° 0 mm 1 mps 760 mmHg 82%
    11:00 +3°C° 0 mm 1 mps 760 mmHg 82%
    12:00 +4°C° 0 mm 1 mps 760 mmHg 82%
    13:00 +4°C° 0 mm 1 mps 760 mmHg 84%
    14:00 +3°C° 0 mm 1 mps 761 mmHg 86%
    15:00 +2°C° 0 mm 0 mps 761 mmHg 88%
    16:00 +1°C° 0 mm 0 mps 761 mmHg 89%
    17:00 +2°C° 0 mm 1 mps 762 mmHg 89%
    18:00 +1°C° 0 mm 1 mps 763 mmHg 90%
    19:00 +1°C° 0 mm 1 mps 764 mmHg 90%
    20:00 0°C° 0 mm 1 mps 764 mmHg 89%
    21:00 0°C° 0 mm 1 mps 765 mmHg 89%
    22:00 0°C° 0 mm 1 mps 765 mmHg 89%
    23:00 0°C° 0 mm 1 mps 765 mmHg 89%

    25 January, Friday

    Time Temperature Precipitation Wind Pressure Humidity
    00:00 -1°C° 0 mm 0 mps 765 mmHg 88%
    01:00 -1°C° 0 mm 0 mps 766 mmHg 88%
    02:00 -2°C° 0 mm 0 mps 766 mmHg 87%
    03:00 -2°C° 0 mm 0 mps 766 mmHg 87%
    04:00 -2°C° 0 mm 0 mps 766 mmHg 87%
    05:00 -2°C° 0 mm 0 mps 767 mmHg 86%
    06:00 -2°C° 0 mm 0 mps 767 mmHg 86%
    07:00 0°C° 0 mm 1 mps 767 mmHg 85%
    08:00 0°C° 0 mm 1 mps 768 mmHg 84%
    09:00 0°C° 0 mm 1 mps 768 mmHg 84%
    10:00 +1°C° 0 mm 1 mps 768 mmHg 82%
    11:00 +1°C° 0 mm 2 mps 768 mmHg 80%
    12:00 +2°C° 0 mm 2 mps 768 mmHg 79%
    13:00 +2°C° 0 mm 2 mps 768 mmHg 81%
    14:00 +2°C° 0 mm 2 mps 768 mmHg 84%
    15:00 +2°C° 0 mm 2 mps 767 mmHg 86%
    16:00 +1°C° 0 mm 2 mps 767 mmHg 87%
    17:00 +1°C° 0 mm 2 mps 768 mmHg 89%
    18:00 -1°C° 0 mm 3 mps 768 mmHg 90%
    19:00 -1°C° 0 mm 3 mps 768 mmHg 89%
    20:00 0°C° 0 mm 3 mps 767 mmHg 88%
    21:00 -1°C° 0 mm 4 mps 767 mmHg 88%
    22:00 -1°C° 0 mm 4 mps 767 mmHg 88%
    23:00 -1°C° 0 mm 4 mps 767 mmHg 88%
    Show more